[[{"header":{"parameterUnit":"m.s-1","parameterCategory":1,"la1":30.2991,"la2":30.254,"lo1":-89.0895,"lo2":-89.0444,"dy":0.0017,"dx":0.0017,"nx":28,"ny":28,"refTime":"2025-12-22T09:00:00:Z","depth":0,"parameterNumber":2,"parameterNumberName":"U-component_of_WINDS"},"data":[0,0,0,0,0,0,0,0,0,0,0,0,0,0,0,0,0,0,0,0,0,0,0,0,0,0,0,0,0,0,0,0,0,0,0,0,0,0,0,0,0,0,0,0,0,0,0,0,0,0,0,0,0,0,0,0,0,0,-1.7285,-1.7284,0,-1.724,-1.724,-1.7239,-1.715,-1.7149,-1.7147,-1.7145,-1.7102,-1.7102,-1.7103,0,0,0,0,0,0,0,0,0,0,0,0,0,-1.7296,-1.7296,-1.7285,-1.7284,-1.7284,-1.724,-1.7239,-1.7239,-1.7151,-1.7149,-1.7146,-1.7144,-1.7102,-1.7102,-1.7103,0,0,0,0,0,0,0,0,0,0,0,0,0,-1.7275,-1.7296,-1.7285,-1.7234,-1.7229,-1.724,-1.7239,-1.7239,-1.7151,-1.7149,-1.7146,-1.7143,-1.7102,-1.7102,-1.7103,-1.716,0,0,-1.7105,-1.7105,0,0,0,0,0,0,0,0,-1.7277,-1.7275,-1.7242,-1.7238,-1.7232,-1.7198,-1.7227,-1.7212,-1.7152,-1.7181,-1.7145,-1.7142,-1.7136,-1.7134,-1.7131,-1.7158,-1.7156,-1.7105,-1.7106,-1.7106,-1.7106,0,0,0,0,0,0,0,-1.7278,-1.7276,-1.7267,-1.7242,-1.7236,-1.7215,-1.7209,-1.7224,-1.7174,-1.7178,-1.7172,-1.7167,-1.7133,-1.7131,-1.713,-1.7156,-1.7105,-1.7106,-1.7106,-1.7107,-1.7227,-1.7229,0,0,0,0,0,0,-1.7287,-1.7278,-1.7268,-1.7266,-1.7248,-1.7217,-1.721,-1.7212,-1.7174,-1.7165,-1.717,-1.7164,-1.7131,-1.7129,-1.7128,-1.7192,-1.7106,-1.7107,-1.7107,-1.7224,-1.7227,-1.723,0,0,0,0,0,0,-1.7287,-1.7287,-1.727,-1.727,-1.7266,-1.7219,-1.7222,-1.7212,-1.721,-1.7167,-1.7158,-1.7177,-1.7129,-1.7127,-1.7152,-1.7189,-1.7107,-1.7108,-1.7221,-1.7225,-1.7229,-1.732,0,0,0,0,0,0,-1.7288,-1.7287,-1.7308,-1.7271,-1.7267,-1.7295,-1.7224,-1.7213,-1.7211,-1.7203,-1.7171,-1.7163,-1.7127,-1.7152,-1.7153,-1.7188,-1.7108,-1.7217,-1.7223,-1.7227,-1.7314,-1.7327,-1.7338,0,0,0,0,0,-1.7289,-1.7336,-1.7309,-1.7309,-1.7292,-1.7298,-1.7295,-1.7251,-1.7215,-1.7235,-1.7208,-1.7164,-1.7185,-1.7155,-1.7156,-1.7192,-1.7215,-1.7221,-1.7227,-1.7308,-1.7324,-1.7338,0,0,0,0,0,0,-1.7379,-1.733,-1.73,-1.7337,-1.7322,-1.7283,-1.7307,-1.727,-1.7265,-1.7257,-1.7203,-1.7197,-1.723,-1.7214,-1.7181,-1.7245,-1.7193,-1.72,-1.7254,-1.7269,-1.7282,-1.7285,-1.7109,0,0,0,0,0,-1.7403,-1.7412,-1.7369,-1.7406,-1.74,-1.7355,-1.7356,-1.7323,-1.7306,-1.7299,-1.7273,-1.7259,-1.7262,-1.7265,-1.7265,-1.7311,-1.7303,-1.7336,-1.7349,-1.7359,-1.7365,-1.7388,-1.7402,-1.7251,-1.725,-1.725,0,0,-1.7454,-1.7428,-1.7437,-1.7423,-1.7408,-1.7418,-1.735,-1.7364,-1.7371,-1.7301,-1.7324,-1.7305,-1.7285,-1.7321,-1.7335,-1.7308,-1.7406,-1.7367,-1.7376,-1.7376,-1.7396,-1.741,-1.7423,-1.7255,-1.7254,-1.7253,0,0,-1.755,-1.7532,-1.756,-1.7546,-1.7523,-1.7493,-1.75,-1.7466,-1.745,-1.7472,-1.7419,-1.7428,-1.7434,-1.7422,-1.7416,-1.7509,-1.7469,-1.7511,-1.7575,-1.7598,-1.7609,-1.762,-1.7652,-1.7665,-1.7517,-1.7517,-1.7518,0,-1.7616,-1.7628,-1.758,-1.7596,-1.7592,-1.7529,-1.7557,-1.7546,-1.7525,-1.7524,-1.7494,-1.75,-1.7482,-1.7514,-1.7537,-1.7535,-1.7541,-1.7514,-1.7612,-1.7621,-1.763,-1.7661,-1.7673,-1.7523,-1.7522,-1.7521,-1.7521,0,-1.771,-1.7719,-1.7745,-1.7725,-1.7724,-1.7747,-1.7702,-1.7707,-1.7675,-1.7649,-1.7671,-1.7648,-1.7642,-1.7647,-1.7616,-1.7675,-1.7659,-1.7621,-1.7567,-1.7651,-1.7678,-1.769,-1.753,-1.7528,-1.7527,-1.7525,0,0,-1.7861,-1.7814,-1.7825,-1.7815,-1.7785,-1.7792,-1.7812,-1.7806,-1.7811,-1.7799,-1.7814,-1.7821,-1.7786,-1.778,-1.7747,-1.7767,-1.7841,-1.7726,-1.7725,-1.7748,-1.7904,-1.7932,-1.7947,-1.7815,-1.7817,-1.7818,-1.7906,0,-1.7951,-1.7981,-1.7939,-1.7979,-1.7988,-1.7928,-1.7946,-1.793,-1.7906,-1.791,-1.7884,-1.7889,-1.7842,-1.7838,-1.7856,-1.7829,-1.7872,-1.7822,-1.7829,-1.783,-1.7835,-1.7961,-1.7991,-1.8074,-1.7916,-1.7918,-1.7919,0,-1.8059,-1.8051,-1.8092,-1.806,-1.8062,-1.8078,-1.8069,-1.8073,-1.8054,-1.8035,-1.8029,-1.799,-1.8008,-1.7956,-1.798,-1.7947,-1.7948,-1.7935,-1.7937,-1.7936,-1.7879,-1.7962,-1.81,-1.8112,-1.7936,-1.7934,-1.7933,0,-1.8165,-1.8165,-1.8189,-1.8183,-1.8145,-1.8158,-1.8144,-1.8122,-1.8121,-1.8113,-1.8112,-1.8107,-1.8104,-1.8101,-1.8062,-1.8028,-1.8091,-1.8036,-1.8076,-1.8077,-1.8091,-1.809,-1.823,-1.8093,-1.8093,-1.8092,-1.8092,0,-1.8268,-1.8296,-1.8236,-1.8251,-1.828,-1.8231,-1.8262,-1.8241,-1.8222,-1.8233,-1.8181,-1.8192,-1.814,-1.8145,-1.8115,-1.8139,-1.8138,-1.8124,-1.8115,-1.8128,-1.813,-1.8127,-1.812,-1.8096,-1.8095,-1.8094,-1.8094,0,-1.8391,-1.8352,-1.8375,-1.8338,-1.8329,-1.8352,-1.832,-1.8333,-1.8306,-1.832,-1.832,-1.8278,-1.8282,-1.8242,-1.8239,-1.8218,-1.8256,-1.8238,-1.8263,-1.8257,-1.8298,-1.8295,-1.844,-1.8456,-1.831,-1.8312,-1.8313,0,-1.846,-1.8479,-1.8444,-1.8447,-1.8434,-1.844,-1.8438,-1.8391,-1.8392,-1.8371,-1.8387,-1.8386,-1.8383,-1.8392,-1.8361,-1.8358,-1.8339,-1.839,-1.8338,-1.835,-1.8339,-1.8338,-1.834,-1.8401,-1.8403,-1.8404,-1.8406,0,-1.8585,-1.8565,-1.8564,-1.8557,-1.8556,-1.8548,-1.8537,-1.8543,-1.8491,-1.8495,-1.8498,-1.8495,-1.8491,-1.8492,-1.8483,-1.8468,-1.8429,-1.8422,-1.8431,-1.8444,-1.8457,-1.845,-1.8292,-1.8419,-1.8418,-1.8417,-1.8416,-1.8415,-1.8682,-1.8696,-1.8674,-1.8675,-1.8661,-1.8652,-1.8662,-1.8636,-1.8637,-1.863,-1.8602,-1.861,-1.859,-1.8574,-1.8563,-1.8569,-1.8544,-1.8557,-1.856,-1.8564,-1.8571,-1.8457,-1.8567,-1.8567,-1.8566,-1.8566,-1.8566,0,-1.8804,-1.8786,-1.8788,-1.8774,-1.8775,-1.8737,-1.8723,-1.8726,-1.8733,-1.8718,-1.8716,-1.872,-1.8719,-1.8689,-1.8685,-1.8695,-1.8677,-1.8696,-1.8694,-1.8691,-1.8594,-1.8586,-1.871,-1.871,-1.871,-1.871,-1.871,-1.871,-1.8867,-1.889,-1.8867,-1.8883,-1.8865,-1.8871,-1.8866,-1.8858,-1.8845,-1.8851,-1.8851,-1.883,-1.8809,-1.8803,-1.8801,-1.8792,-1.8793,-1.8818,-1.8803,-1.8712,-1.8698,-1.8685,-1.8677,-1.8819,-1.8819,-1.8899,-1.89,-1.8901]},{"header":{"parameterUnit":"m.s-1","parameterCategory":1,"la1":30.2991,"la2":30.254,"lo1":-89.0895,"lo2":-89.0444,"dy":0.0017,"dx":0.0017,"nx":28,"ny":28,"refTime":"2025-12-22T09:00:00:Z","depth":0,"parameterNumber":3,"parameterNumberName":"V-component_of_WINDS"},"data":[0,0,0,0,0,0,0,0,0,0,0,0,0,0,0,0,0,0,0,0,0,0,0,0,0,0,0,0,0,0,0,0,0,0,0,0,0,0,0,0,0,0,0,0,0,0,0,0,0,0,0,0,0,0,0,0,0,0,-0.103,-0.103,0,-0.0999,-0.0998,-0.0998,-0.0954,-0.0953,-0.0953,-0.0952,-0.092,-0.092,-0.092,0,0,0,0,0,0,0,0,0,0,0,0,0,-0.1051,-0.1051,-0.103,-0.103,-0.1029,-0.0999,-0.0998,-0.0998,-0.0954,-0.0953,-0.0952,-0.0952,-0.092,-0.092,-0.092,0,0,0,0,0,0,0,0,0,0,0,0,0,-0.1033,-0.1051,-0.103,-0.1004,-0.1001,-0.0999,-0.0998,-0.0998,-0.0954,-0.0953,-0.0952,-0.0951,-0.0921,-0.092,-0.092,-0.0941,0,0,-0.0919,-0.0919,0,0,0,0,0,0,0,0,-0.1034,-0.1033,-0.1008,-0.1006,-0.1003,-0.0979,-0.0994,-0.0979,-0.0955,-0.0972,-0.0952,-0.0951,-0.0941,-0.0939,-0.0936,-0.094,-0.0939,-0.0919,-0.0919,-0.0919,-0.0919,0,0,0,0,0,0,0,-0.1036,-0.1034,-0.1018,-0.1008,-0.1004,-0.0993,-0.099,-0.0991,-0.0963,-0.0971,-0.0967,-0.0964,-0.0939,-0.0936,-0.0935,-0.0938,-0.0919,-0.0919,-0.0919,-0.0919,-0.0956,-0.0957,0,0,0,0,0,0,-0.1041,-0.1035,-0.1019,-0.1017,-0.1016,-0.0994,-0.099,-0.0988,-0.0963,-0.0958,-0.0965,-0.0962,-0.0937,-0.0935,-0.0933,-0.0955,-0.0919,-0.0919,-0.0919,-0.0955,-0.0957,-0.0958,0,0,0,0,0,0,-0.1042,-0.104,-0.102,-0.1025,-0.1022,-0.0995,-0.0993,-0.0988,-0.0984,-0.0959,-0.0954,-0.0967,-0.0936,-0.0934,-0.0939,-0.0954,-0.0919,-0.0919,-0.0954,-0.0956,-0.0957,-0.1001,0,0,0,0,0,0,-0.1042,-0.104,-0.1049,-0.1026,-0.1022,-0.1027,-0.0994,-0.0988,-0.0984,-0.098,-0.0959,-0.0955,-0.0935,-0.094,-0.0939,-0.0953,-0.0919,-0.0953,-0.0955,-0.0957,-0.0998,-0.1003,-0.1008,0,0,0,0,0,-0.1043,-0.1063,-0.1049,-0.1047,-0.1031,-0.1028,-0.1026,-0.1002,-0.0986,-0.0993,-0.0976,-0.0955,-0.0952,-0.0941,-0.094,-0.0953,-0.0952,-0.0954,-0.0957,-0.0995,-0.1002,-0.1008,0,0,0,0,0,0,-0.1089,-0.1059,-0.1044,-0.1056,-0.1045,-0.1021,-0.103,-0.101,-0.1004,-0.1,-0.0971,-0.0967,-0.0976,-0.0965,-0.0953,-0.0972,-0.0949,-0.0951,-0.0978,-0.0985,-0.099,-0.0992,-0.0918,0,0,0,0,0,-0.11,-0.11,-0.1074,-0.1087,-0.1082,-0.1057,-0.1055,-0.1037,-0.1024,-0.1019,-0.1003,-0.0992,-0.0987,-0.0986,-0.0981,-0.0996,-0.099,-0.1005,-0.101,-0.1015,-0.1017,-0.1022,-0.1028,-0.0966,-0.0966,-0.0966,0,0,-0.1124,-0.1107,-0.1109,-0.1096,-0.1085,-0.1085,-0.1053,-0.1055,-0.1055,-0.102,-0.1024,-0.1011,-0.0996,-0.1006,-0.101,-0.0998,-0.1033,-0.1018,-0.1022,-0.1021,-0.1026,-0.1032,-0.1037,-0.0968,-0.0968,-0.0967,0,0,-0.1166,-0.1155,-0.1164,-0.1153,-0.1136,-0.1119,-0.1121,-0.11,-0.109,-0.1093,-0.1066,-0.1065,-0.106,-0.105,-0.1044,-0.1081,-0.1061,-0.108,-0.1108,-0.1114,-0.1119,-0.1123,-0.1135,-0.114,-0.1083,-0.1083,-0.1083,0,-0.1198,-0.1197,-0.1171,-0.1174,-0.1168,-0.1136,-0.1144,-0.1135,-0.1118,-0.1115,-0.1102,-0.1092,-0.108,-0.1087,-0.1095,-0.1092,-0.1093,-0.1082,-0.112,-0.1124,-0.1128,-0.1139,-0.1144,-0.1085,-0.1085,-0.1084,-0.1084,0,-0.1236,-0.1235,-0.1245,-0.1228,-0.1224,-0.123,-0.1204,-0.1203,-0.1185,-0.1169,-0.1172,-0.1156,-0.1147,-0.1147,-0.1131,-0.1151,-0.1143,-0.1125,-0.1101,-0.1136,-0.1146,-0.1151,-0.1088,-0.1088,-0.1087,-0.1086,0,0,-0.1307,-0.1275,-0.1279,-0.127,-0.1249,-0.1248,-0.1252,-0.1242,-0.1241,-0.123,-0.1232,-0.1227,-0.1209,-0.1203,-0.1185,-0.119,-0.1219,-0.1171,-0.117,-0.118,-0.1238,-0.1252,-0.1257,-0.1205,-0.1206,-0.1207,-0.1239,0,-0.1345,-0.135,-0.1326,-0.1337,-0.1335,-0.1304,-0.1307,-0.1294,-0.1279,-0.1275,-0.1258,-0.1255,-0.1233,-0.1228,-0.1232,-0.1215,-0.123,-0.1212,-0.1206,-0.1206,-0.121,-0.1262,-0.1277,-0.1309,-0.1243,-0.1244,-0.1244,0,-0.1391,-0.1381,-0.1392,-0.1368,-0.1367,-0.137,-0.1358,-0.1355,-0.134,-0.1328,-0.132,-0.1298,-0.13,-0.1277,-0.1278,-0.1266,-0.1262,-0.1253,-0.1254,-0.1252,-0.1227,-0.1261,-0.1318,-0.1323,-0.125,-0.125,-0.125,0,-0.144,-0.143,-0.1435,-0.1429,-0.1402,-0.1404,-0.1393,-0.1376,-0.1371,-0.1361,-0.1357,-0.1348,-0.1342,-0.1335,-0.1311,-0.1297,-0.1314,-0.129,-0.1304,-0.1305,-0.1309,-0.1309,-0.1366,-0.1308,-0.1308,-0.1308,-0.1308,0,-0.1485,-0.1493,-0.1456,-0.1459,-0.1466,-0.1438,-0.1446,-0.1432,-0.1416,-0.1415,-0.1388,-0.1387,-0.1356,-0.1352,-0.1334,-0.1336,-0.1334,-0.1325,-0.1319,-0.1327,-0.1328,-0.1324,-0.132,-0.1309,-0.1309,-0.1308,-0.1308,0,-0.1542,-0.1518,-0.1521,-0.1495,-0.1488,-0.1494,-0.1472,-0.1473,-0.1455,-0.1454,-0.1453,-0.1425,-0.1419,-0.1394,-0.1382,-0.137,-0.1378,-0.1369,-0.1383,-0.138,-0.1395,-0.1394,-0.145,-0.1456,-0.1396,-0.1396,-0.1397,0,-0.1572,-0.1577,-0.1551,-0.1548,-0.1538,-0.1534,-0.1528,-0.15,-0.1496,-0.1477,-0.148,-0.1471,-0.1463,-0.1454,-0.1433,-0.1423,-0.1412,-0.1433,-0.1411,-0.1417,-0.1412,-0.1411,-0.1411,-0.1438,-0.1438,-0.1439,-0.144,0,-0.1627,-0.1615,-0.1608,-0.1597,-0.1591,-0.158,-0.1569,-0.1568,-0.1536,-0.1532,-0.1525,-0.1519,-0.1505,-0.1497,-0.1483,-0.1471,-0.145,-0.1447,-0.1449,-0.1456,-0.1464,-0.1459,-0.1396,-0.1445,-0.1445,-0.1444,-0.1444,-0.1444,-0.1671,-0.1673,-0.1655,-0.1647,-0.1635,-0.1625,-0.1624,-0.1606,-0.1599,-0.1586,-0.157,-0.1564,-0.1547,-0.1526,-0.1516,-0.151,-0.1499,-0.1503,-0.1504,-0.1505,-0.1508,-0.1466,-0.1508,-0.1508,-0.1508,-0.1507,-0.1507,0,-0.1724,-0.171,-0.1704,-0.1688,-0.1682,-0.1662,-0.1647,-0.1643,-0.1639,-0.1624,-0.1616,-0.1607,-0.1598,-0.1575,-0.1564,-0.1564,-0.1554,-0.1562,-0.1561,-0.1559,-0.152,-0.1518,-0.157,-0.157,-0.157,-0.157,-0.157,-0.157,-0.1751,-0.1753,-0.1738,-0.1734,-0.172,-0.1714,-0.1707,-0.1696,-0.1684,-0.1675,-0.1667,-0.1653,-0.1635,-0.1621,-0.1612,-0.1605,-0.1602,-0.1613,-0.1604,-0.1568,-0.1562,-0.1556,-0.1554,-0.1613,-0.1613,-0.1643,-0.1643,-0.1643]}]]